DMSP 5D-3 F16 (USA 172) 1 28054U 03048A 26094.95235632 .00000166 00000+0 11057-3 0 9999 2 28054 98.9960 118.2750 0006991 4.0454 58.4846 14.14472657159133 METEOSAT-9 (MSG-2) 1 28912U 05049B 26093.97140566 .00000126 00000+0 00000+0 0 9995 2 28912 9.1959 54.8826 0000594 40.9643 131.8166 1.00273367 6252 DMSP 5D-3 F17 (USA 191) 1 29522U 06050A 26094.91233054 .00000226 00000+0 13948-3 0 9996 2 29522 98.7408 102.9757 0008899 264.8576 95.1582 14.14976457 2067 FENGYUN 3A 1 32958U 08026A 26094.81449766 .00000179 00000+0 10564-3 0 9994 2 32958 98.6833 37.0424 0008471 346.8631 13.2324 14.19554973924993 GOES 14 1 35491U 09033A 26094.78297635 .00000048 00000+0 00000+0 0 9995 2 35491 1.5006 83.9313 0001831 296.9406 277.1581 1.00111808 5851 DMSP 5D-3 F18 (USA 210) 1 35951U 09057A 26094.94898959 .00000312 00000+0 18445-3 0 9996 2 35951 98.9000 75.8972 0012201 98.0368 262.2189 14.14853725849235 EWS-G2 (GOES 15) 1 36411U 10008A 26094.90441697 .00000023 00000+0 00000+0 0 9998 2 36411 1.0853 84.3037 0003359 17.8549 119.9209 1.00271710 58905 COMS 1 1 36744U 10032A 26094.91465060 -.00000342 00000+0 00000+0 0 9990 2 36744 4.6158 76.3725 0001324 323.7678 250.5111 1.00272389 50356 FENGYUN 3B 1 37214U 10059A 26094.96980946 .00000128 00000+0 89652-4 0 9998 2 37214 98.9706 140.6462 0022682 36.6821 33.1153 14.14825461797079 SUOMI NPP 1 37849U 11061A 26094.89363411 .00000130 00000+0 82915-4 0 9998 2 37849 98.7904 36.2924 0002034 143.3714 216.7601 14.19501015748041 METEOSAT-10 (MSG-3) 1 38552U 12035B 26094.74669199 -.00000004 00000+0 00000+0 0 9999 2 38552 4.4985 61.3242 0002416 296.4452 104.1652 1.00273407 50129 METOP-B 1 38771U 12049A 26094.91205064 .00000179 00000+0 10193-3 0 9993 2 38771 98.6585 147.8469 0002457 170.5961 189.5263 14.21427651702854 INSAT-3D 1 39216U 13038B 26094.91491060 -.00000337 00000+0 00000+0 0 9999 2 39216 1.7369 83.4558 0001754 266.4127 302.2090 1.00271842 46345 FENGYUN 3C 1 39260U 13052A 26094.89614670 .00000165 00000+0 10521-3 0 9996 2 39260 98.4930 72.1597 0013678 231.7574 128.2370 14.15737741648191 METEOR-M 2 1 40069U 14037A 26094.93936593 -.00000022 00000+0 90614-5 0 9991 2 40069 98.5065 73.2949 0004571 246.6274 113.4424 14.21439082608913 HIMAWARI-8 1 40267U 14060A 26094.92408442 .00000000 00000+0 00000+0 0 9992 2 40267 0.0160 193.1019 0001039 168.8466 304.6123 1.00271397 42021 FENGYUN 2G 1 40367U 14090A 26093.41148830 -.00000298 00000+0 00000+0 0 9991 2 40367 5.4510 73.7085 0001412 141.4409 224.0023 1.00261841 41256 METEOSAT-11 (MSG-4) 1 40732U 15034A 26094.89117326 .00000065 00000+0 00000+0 0 9996 2 40732 3.0178 71.4926 0001739 285.2508 166.5854 1.00276040 6489 ELEKTRO-L 2 1 41105U 15074A 26094.74383198 -.00000114 00000+0 00000+0 0 9997 2 41105 6.5108 71.4154 0002637 258.0634 116.8747 1.00272296 37778 INSAT-3DR 1 41752U 16054A 26094.91483429 -.00000077 00000+0 00000+0 0 9999 2 41752 0.1290 86.8069 0012081 196.6229 313.1427 1.00273688 35089 HIMAWARI-9 1 41836U 16064A 26094.96665135 -.00000274 00000+0 00000+0 0 9993 2 41836 0.0480 108.4251 0001246 289.4240 284.1926 1.00271139 34473 GOES 16 1 41866U 16071A 26094.86857429 -.00000090 00000+0 00000+0 0 9998 2 41866 0.1740 85.2963 0001845 246.4712 69.3990 1.00272259 34366 FENGYUN 4A 1 41882U 16077A 26094.91378392 -.00000355 00000+0 00000+0 0 9999 2 41882 2.1375 81.0256 0007901 139.4162 65.3806 1.00278713 34192 CYGFM05 1 41884U 16078A 26094.93052576 .00028437 00000+0 43134-3 0 9996 2 41884 34.9589 24.5182 0007071 194.1640 165.8886 15.53573249517343 CYGFM04 1 41885U 16078B 26094.91667668 .00035007 00000+0 45689-3 0 9997 2 41885 34.9344 355.6605 0007097 234.9826 125.0232 15.57599205517558 CYGFM02 1 41886U 16078C 26094.90811298 .00037554 00000+0 45025-3 0 9990 2 41886 34.9426 352.0489 0008111 233.4445 126.5533 15.59815078517708 CYGFM01 1 41887U 16078D 26094.88455214 .00029001 00000+0 43080-3 0 9997 2 41887 34.9420 26.4343 0006548 187.3159 172.7470 15.54146057517280 CYGFM08 1 41888U 16078E 26094.89441945 .00032099 00000+0 43868-3 0 9990 2 41888 34.9455 7.6998 0008646 214.3202 145.6964 15.56369159517534 CYGFM07 1 41890U 16078G 26094.85772202 .00032330 00000+0 44078-3 0 9994 2 41890 34.9467 356.3423 0007518 232.9281 127.0757 15.56442502517557 CYGFM03 1 41891U 16078H 26094.89289526 .00031877 00000+0 43469-3 0 9999 2 41891 34.9426 358.0740 0006474 223.2355 136.7861 15.56448499517531 FENGYUN 3D 1 43010U 17072A 26094.92362917 -.00000005 00000+0 19269-4 0 9991 2 43010 99.0074 68.0463 0000433 256.2618 103.8509 14.19722730434593 NOAA 20 (JPSS-1) 1 43013U 17073A 26094.90784984 .00000103 00000+0 69971-4 0 9998 2 43013 98.7724 35.0393 0002035 102.3173 257.8231 14.19543187434079 GOES 17 1 43226U 18022A 26094.87160764 -.00000181 00000+0 00000+0 0 9999 2 43226 0.7495 86.7995 0001203 258.3114 72.3490 1.00271642 29681 FENGYUN 2H 1 43491U 18050A 26094.90494389 -.00000124 00000+0 00000+0 0 9998 2 43491 2.8421 79.9482 0001157 171.1190 346.9623 1.00270579 28704 METOP-C 1 43689U 18087A 26094.93526529 .00000174 00000+0 99518-4 0 9993 2 43689 98.6711 155.8557 0001766 64.4918 295.6442 14.21506305384422 GEO-KOMPSAT-2A 1 43823U 18100A 26094.91473727 -.00000343 00000+0 00000+0 0 9990 2 43823 0.0529 37.8886 0001957 23.0900 229.8063 1.00273348 26897 METEOR-M2 2 1 44387U 19038A 26094.90713061 -.00000004 00000+0 18148-4 0 9995 2 44387 98.9117 81.1258 0000673 168.4548 191.6646 14.24344583350863 ARKTIKA-M 1 1 47719U 21016A 26086.24697042 -.00000098 00000+0 00000+0 0 9990 2 47719 63.2179 69.3783 7253959 269.5617 15.0995 2.00616454 37142 FENGYUN 3E 1 49008U 21062A 26094.98637459 .00000094 00000+0 65057-4 0 9993 2 49008 98.7510 99.2074 0000922 342.2182 17.8962 14.19897832246196 GOES 18 1 51850U 22021A 26094.71956521 .00000097 00000+0 00000+0 0 9997 2 51850 0.0483 37.2906 0000820 38.7033 239.0887 1.00274252 5855 NOAA 21 (JPSS-2) 1 54234U 22150A 26094.87177809 .00000143 00000+0 88742-4 0 9996 2 54234 98.7586 34.8425 0002641 60.8088 299.3352 14.19559508176141 METEOSAT-12 (MTG-I1) 1 54743U 22170C 26094.89892032 -.00000006 00000+0 00000+0 0 9992 2 54743 0.7403 26.5316 0001527 303.4511 186.5301 1.00274746 12248 TIANMU-1 03 1 55973U 23039A 26094.92117836 .00019127 00000+0 40427-3 0 9993 2 55973 97.5206 266.1499 0002947 25.3889 334.7503 15.45208871169512 TIANMU-1 04 1 55974U 23039B 26094.93719118 .00020558 00000+0 42656-3 0 9992 2 55974 97.5139 265.3206 0003455 17.1706 342.9659 15.45734711169528 TIANMU-1 05 1 55975U 23039C 26094.89879006 .00018853 00000+0 39935-3 0 9992 2 55975 97.5184 265.7685 0003240 47.8992 312.2532 15.45146351169496 TIANMU-1 06 1 55976U 23039D 26094.93679110 .00019807 00000+0 41200-3 0 9990 2 55976 97.5194 266.3725 0003403 40.1839 319.9661 15.45669149169523 FENGYUN 3G 1 56232U 23055A 26094.95462341 .00034415 00000+0 53441-3 0 9994 2 56232 49.9946 3.6369 0004071 45.2684 314.8614 15.53580615168628 METEOR-M2 3 1 57166U 23091A 26094.95528958 .00000031 00000+0 32462-4 0 9996 2 57166 98.6164 151.4066 0004483 38.3330 321.8167 14.24040591144099 TIANMU-1 07 1 57399U 23101A 26094.88983075 .00009602 00000+0 33925-3 0 9990 2 57399 97.2667 147.2494 0004464 80.3359 279.8386 15.29394762150444 TIANMU-1 08 1 57400U 23101B 26094.53033657 .00000459 00000+0 18611-4 0 9994 2 57400 97.2662 146.6773 0005376 60.6646 299.5131 15.29475906150388 TIANMU-1 09 1 57401U 23101C 26094.90659378 .00009440 00000+0 33335-3 0 9998 2 57401 97.2614 146.5014 0004903 78.1357 282.0434 15.29415776150440 TIANMU-1 10 1 57402U 23101D 26094.93931178 .00009349 00000+0 32944-3 0 9996 2 57402 97.2693 147.5069 0006145 65.0148 295.1730 15.29479520150443 FENGYUN 3F 1 57490U 23111A 26094.90137279 .00000121 00000+0 77238-4 0 9996 2 57490 98.6877 166.2619 0000807 87.4914 272.6355 14.19926043138462 ARKTIKA-M 2 1 58584U 23198A 26089.99739019 .00000142 00000+0 00000+0 0 9990 2 58584 63.2169 163.0455 6882975 267.6817 18.8399 2.00607099 16755 TIANMU-1 11 1 58645U 23205A 26094.90314914 .00007596 00000+0 29574-3 0 9998 2 58645 97.3509 117.6307 0007101 260.2756 99.7680 15.26251305126340 TIANMU-1 12 1 58646U 23205B 26094.93675098 .00008659 00000+0 33740-3 0 9996 2 58646 97.3497 117.4357 0005650 237.1788 122.8907 15.26190654126333 TIANMU-1 13 1 58647U 23205C 26094.90120961 .00008055 00000+0 31357-3 0 9990 2 58647 97.3525 117.6513 0006427 215.1849 144.8966 15.26240551126329 TIANMU-1 14 1 58648U 23205D 26094.95177715 .00008341 00000+0 32479-3 0 9999 2 58648 97.3460 116.9461 0007003 221.4293 138.6416 15.26215247126332 TIANMU-1 19 1 58660U 23208A 26094.88864421 .00012214 00000+0 41740-3 0 9990 2 58660 97.4417 210.9175 0004660 200.2987 159.8070 15.30424194126112 TIANMU-1 20 1 58661U 23208B 26094.91801307 .00012218 00000+0 40238-3 0 9994 2 58661 97.4358 211.5068 0006527 214.7469 145.3346 15.31611292126208 TIANMU-1 21 1 58662U 23208C 26094.94662213 .00014870 00000+0 45780-3 0 9992 2 58662 97.4415 213.9121 0006623 208.8529 151.2348 15.33722418126334 TIANMU-1 22 1 58663U 23208D 26094.91317872 .00011095 00000+0 38452-3 0 9992 2 58663 97.4412 210.9350 0002819 221.8890 138.2135 15.29996966126124 TIANMU-1 15 1 58700U 24004A 26094.94928610 .00008431 00000+0 32820-3 0 9993 2 58700 97.4676 281.1608 0005798 240.3256 119.7405 15.26238716124609 TIANMU-1 16 1 58701U 24004B 26094.93215909 .00008971 00000+0 34868-3 0 9996 2 58701 97.4620 280.4483 0004199 241.8930 118.1884 15.26276165124605 TIANMU-1 17 1 58702U 24004C 26094.91408497 .00008951 00000+0 34946-3 0 9996 2 58702 97.4649 280.8953 0004043 248.4322 111.6486 15.26128589124599 TIANMU-1 18 1 58703U 24004D 26094.96561851 .00008139 00000+0 31693-3 0 9990 2 58703 97.4667 281.1628 0002826 237.6342 122.4623 15.26246911124607 INSAT-3DS 1 58990U 24033A 26094.86433974 -.00000155 00000+0 00000+0 0 9998 2 58990 0.0411 94.9449 0002184 286.3129 205.1525 1.00271676 46330 METEOR-M2 4 1 59051U 24039A 26094.95722161 .00000047 00000+0 40797-4 0 9993 2 59051 98.6948 55.2028 0007645 29.8208 330.3404 14.22421477108852 GOES 19 1 60133U 24119A 26094.87438098 -.00000248 00000+0 00000+0 0 9991 2 60133 0.0448 39.8414 0000976 21.0955 11.8262 1.00271610 6222 FENGYUN 3H 1 65815U 25219A 26094.89737840 .00000147 00000+0 89796-4 0 9995 2 65815 98.6720 37.1121 0000716 69.3956 290.7298 14.19939981 26982